Regional Weather Roundup
Issued by NWS Kansas City/Pleasant Hill, MO

Home | Current Version | Previous Version | Text Only | Print | Product List | Glossary On
Versions: 1 2 3 4 5 6 7 8 9 10 11 12 13 14 15 16 17 18 19 20 21 22 23 24 25 26 27 28 29 30 31 32 33 34 35 36 37 38 39 40 41 42 43 44 45 46 47 48 49 50
000
ASUS43 KEAX 230304
RWREAX

WEATHER ROUNDUP FOR EASTERN KANSAS AND NORTHWEST MISSOURI
NATIONAL WEATHER SERVICE KANSAS CITY/PLEASANT HILL MO
1000 PM CDT WED OCT 22 2014

KSZ040-057-103>105-MOZ028-029-037-043-230400-
...KANSAS CITY METROPOLITAN AREA...

CITY           SKY/WX    TMP DP  RH WIND       PRES   REMARKS
K.C. INTL      CLEAR     60  51  72 SE10      30.11S
K.C. DOWNTOWN  CLEAR     65  50  58 SE9       30.11R
LEES SUMMIT    PTCLDY    62  48  60 SE9       30.13S
OLATHE - IXD   CLEAR     62  53  72 SE10      30.12R
OLATHE - OJC   CLEAR     61  53  75 SE9       30.11S
LAWRENCE       PTCLDY    63  55  75 SE9       30.10R

$$

MOZ001>008-011>017-020>025-030>033-038>040-044>046-053-054-230400-
...NORTHERN AND CENTRAL MISSOURI...

CITY           SKY/WX    TMP DP  RH WIND       PRES   REMARKS
ST. JOSEPH     CLEAR     62  51  67 S6        30.10R
WHITEMAN AFB   CLEAR     56  47  71 SE8       30.14S
CLINTON        PTCLDY    57  48  72 SE5       30.15S
SEDALIA        PTCLDY    54  46  74 SE7       30.17S
WARSAW         NOT AVBL
MARSHALL       PTCLDY    57  48  72 SE7       30.17S
CHILLICOTHE      N/A     59  46  62 SE6       30.16R
MOBERLY        CLEAR     50  39  66 SE6       30.20S
KIRKSVILLE     CLEAR     49  42  77 SE8       30.19S

$$

MOZ041-047>049-056>058-063>065-088>090-097-230400-
...EASTERN AND SOUTHERN MISSOURI...

CITY           SKY/WX    TMP DP  RH WIND       PRES   REMARKS
ST. LOUIS INTL PTCLDY    50  41  71 E6        30.24R
SPIRIT OF STL  CLEAR     41  40  96 CALM      30.22S
COLUMBIA       CLEAR     52  42  69 E9        30.20R
JEFFERSON CITY CLEAR     47  41  80 SE6       30.19S
MEXICO         CLEAR     48  45  87 E5        30.20F
ROLLA          CLEAR     49  39  68 SE10      30.19S
LEBANON        CLEAR     52  45  76 S5        30.20R
OSAGE BEACH    CLEAR     54  43  66 SE3       30.18S
SPRINGFIELD    CLEAR     56  47  71 SE12      30.16F
BRANSON        PTCLDY    54  46  76 SE7       30.20R
NEVADA         MOCLDY    59  52  77 SE7       30.15S
JOPLIN         PTCLDY    61  52  72 SE9       30.15R
WEST PLAINS    CLEAR     44  40  85 CALM      30.23R

$$

IAZ060-094-KSZ022-034>040-054-083-096-NEZ052-066-093-230400-
...KANSAS...SOUTHEAST NEBRASKA AND IOWA...

CITY           SKY/WX    TMP DP  RH WIND       PRES   REMARKS
TOPEKA         CLOUDY    68  58  70 SE10      30.08S
MANHATTAN      LGT RAIN  65  60  84 W5        30.07R
EMPORIA        CLOUDY    65  57  75 S9        30.09R
CHANUTE        CLOUDY    64  59  83 SE7       30.11R
WICHITA        CLOUDY    64  59  83 SW6       30.09R
OMAHA          RAIN      63  61  93 SE12      30.05F FOG
LINCOLN        LGT RAIN  62  59  90 S14       30.05F
FALLS CITY     LGT RAIN  64  56  75 SE9       30.06R
LAMONI         PTCLDY    56  46  69 SE10      30.13R
DES MOINES     MOCLDY    58  45  62 SE10      30.12S

$$




USA.gov is the U.S. government's official web portal to all federal, state and local government web resources and services.